User: anonymous   Login
Location: Via Auriletto, 13, 10098 Rivoli TO, Italia
(45.0746°N, 7.5214°E)
Time: 15:20:22
(UTC+02:00)
Language:

HuskySat-1 - Orbit

View from above orbital plane
View from above orbital plane
View from above satellite
View from above satellite

Ground track
Ground track

The orbit data is extracted from the following two-line orbital elements,

1 45117U 19071G   21110.17403706  .00007167  00000-0  21202-3 0  9990
2 45117  51.6424 318.6801 0010748  84.3925 275.8283 15.35956044 68225
Epoch (UTC): 20 April 2021 04:10:36
Eccentricity: 0.0010748
inclination: 51.6424°
perigee height: 451 km
apogee height: 465 km
right ascension of ascending node: 318.6801°
argument of perigee: 84.3925°
revolutions per day: 15.35956044
mean anomaly at epoch: 275.8283°
orbit number at epoch: 6822

The dashed part of the orbit path shows where the satellite is in the earth's shadow,  

DLR